Voltar ao catálogo

GHGSAT-C2

AtivoCiênciaSSO
NORAD 47509·PAYLOAD·🇨🇦 Canada

Lançado Jan 24, 2021 de Cape Canaveral Space Force Station

Loading…

Próximas Passagens (próximas 24 horas)

TLE

AtualizadoSource: Space-Track

Época: Sep 13, 2026, 16:24 UTC

1 47509U 21006DA  26256.68369662  .00004832  00000-0  12851-3 0  9998
2 47509  97.2060 302.4492 0004480 187.4453 172.6727 15.38690114313459

Acompanhe GHGSAT-C2 em tempo real com AllMySat

Download on the App Store